星链-4384 (STARLINK-4384 )

导读

STARLINK-4384是美国太空探索技术公司SpaceX星链星座的一员,于2022年7月22日发射入轨。它属于星链低轨互联网通信卫星,运行在近地轨道,搭载Ku/Ka波段通信载荷与霍尔推进器,具备自主避撞能力,服务全球高速卫星互联网接入,是星链万颗低轨星座组网进程中的常规组网卫星,设计寿命约5-7年,退役后会主动离轨再入大气层销毁。

Basic Information
目录编号:
53218
目录名称:
STARLINK-4384
国际标识:
2022-084AF
轨道中心:
EARTH
卫星名称:
星链-4384
卫星全名:
星链-4384 (STARLINK-4384 )
卫星状态:
在轨 (已飞行1426 天)
发射日期:
2022-07-22 UTC
国别 :
美国 (US)
星等 :
--
Orbit Information
数据来源 国际轨道数据 AOE轨道数据
星历时间 2026-06-17T10:13:22+0800
9小时前
查看轨道信息
2026-06-13T00:00:00+0800
4天前
查看轨道信息
半长轴 6927.92km 6927.547km
偏心率 0.0002149 0.0002576
轨道倾角 97.358° 97.373°
近地点辐角 118.953° 113.909°
升交点赤经 228.292° 224.066°
平近点角 241.191° 31.663°
近地点 548.294km 547.625km
远地点 551.272km 551.195km
周期 95.645分钟 95.638分钟
每日圈数 15.055615 15.056831
Detailed Information
固有亮度:
5
最大亮度:
2.5
卫星平台:
Starlink v1.5
覆盖范围:
全球
运营商:
太空探索技术公司
运营商所在国:
美国
制造商(研发单位):
太空探索技术公司
制造商所在国:
美国
使用方式:
暂无
Satellite Introduction
星链(Starlink)计划是由太空探索技术公司(SpaceX)提出的一个巨型低轨卫星互联网星座项目,计划在2019年至2024年间在太空搭建由约1.2万颗卫星组成的“星链”网络,其中1584颗将部署在地球上空550千米处的近地轨道,并从2020年开始工作。该卫星仍在工作。
2D Orbit Map
3D Orbit Map
Orbit Altitude Analysis Chart
Orbit Inclination Analysis Chart
Orbit Comprehensive Analysis Chart
View Comprehensive Chart